{"data":{"norad_id":52278,"intl_designator":"2022-041T","name":"STARLINK-3780","alt_names":[],"object_type":"PAYLOAD","status":"ACTIVE","operator":null,"country":"US","launch_date":"2022-04-21","launch_site_code":"AFETR","launch_vehicle":null,"mission":null,"orbit_class":"UNKNOWN","rcs_meters":null,"size_class":null,"mass_kg":null,"dimensions":null,"purposes":["comms"],"wikipedia_slug":null,"has_3d_model":false,"image_url":null,"decayed_at":null,"tle_current":{"epoch":"2026-05-25T02:36:41.247072Z","epoch_age_seconds":79828,"freshness":"FRESH","line1":"1 52278U 22041T   26145.10881073 -.00000635  00000+0 -21828-4 0  9999","line2":"2 52278  53.2133 126.0588 0001216  90.6996 269.4136 15.08837330225909","mean_motion":15.0883733,"eccentricity":0.0001216,"inclination_deg":53.2133,"raan_deg":126.0588,"arg_perigee_deg":90.6996,"mean_anomaly_deg":269.4136,"bstar":-2.1828e-5,"rev_number":22590,"period_min":95.437723561625,"perigee_km":538.9103348503,"apogee_km":540.59276534568,"semimajor_km":6917.888550098,"source":"CELESTRAK","updated_at":"2026-05-25T13:38:17.083421Z"}}}